Theta_e
291 292 294 295 298 299 301 299 296 301 299 298 297 300 303 307 307 308 307 304 305 304 304 304 304 306 305 304 304 304 305 302 302 304 303 304 305 305 305 297 299 297 296 297
291 291 292 294 297 299 299 299 299 303 300 291 290 298 302 304 306 306 306 304 305 306 303 304 305 305 304 304 303 304 304 301 303 303 302 301 304 306 304 302 299 299 297 296
291 291 291 293 294 297 297 299 293 300 302 299 297 300 300 302 303 305 305 306 304 305 306 304 305 304 303 304 304 304 305 303 302 304 303 301 302 305 305 304 302 303 302 303
290 291 291 292 293 295 296 299 299 298 297 301 297 298 300 300 303 304 305 304 304 304 303 305 305 304 304 303 305 303 301 305 306 305 305 303 302 304 305 304 305 306 306 305
291 290 291 290 293 294 295 296 299 300 301 302 301 300 298 300 300 304 302 303 304 303 305 304 304 303 302 302 302 301 301 301 302 298 304 304 303 303 305 304 305 306 305 305
291 291 289 291 291 293 293 294 296 298 300 299 301 301 300 300 300 301 303 302 303 303 303 305 306 304 304 302 300 299 302 300 300 301 303 302 302 303 304 305 305 304 304 303
291 291 290 290 291 292 293 294 294 294 300 299 301 302 301 300 301 300 303 303 303 304 305 305 305 304 302 302 300 301 301 300 297 297 301 295 301 302 303 303 303 304 303 302
291 291 292 291 290 291 292 294 293 293 294 298 300 301 302 301 301 301 303 303 305 304 305 300 298 296 298 295 302 302 301 299 296 297 297 301 302 302 303 302 301 302 304 303
291 291 291 292 291 290 291 292 294 292 294 294 296 301 302 301 299 300 301 301 301 304 299 299 297 299 301 302 303 303 300 299 297 296 294 298 301 304 303 303 302 301 303 301
291 291 292 292 292 291 291 291 291 292 293 293 294 297 299 302 301 300 301 302 302 302 295 291 296 301 303 304 304 304 302 296 295 289 295 301 300 304 304 302 303 302 303 302
291 291 292 292 292 292 291 291 291 291 293 293 293 295 295 297 301 301 302 301 302 299 301 298 297 299 301 302 303 304 304 299 295 296 292 301 302 302 303 303 303 303 303 303
290 290 291 292 292 292 292 290 289 291 291 292 292 292 292 293 294 295 301 302 301 302 299 295 297 301 297 300 301 301 304 301 302 301 301 301 303 303 304 304 305 304 303 303
290 291 291 292 292 292 293 291 290 290 291 291 291 291 292 292 294 295 296 302 304 304 303 300 299 303 299 301 300 301 302 301 301 302 302 302 304 305 305 306 305 306 305 304
290 291 291 292 292 293 293 292 291 290 290 291 291 291 292 293 293 294 295 298 302 301 302 303 297 299 302 300 301 300 301 302 300 300 301 303 304 304 305 306 305 306 305 304
290 290 291 292 293 293 293 292 291 290 290 289 291 290 292 292 294 294 294 295 298 301 302 297 300 300 301 298 298 299 301 300 301 301 304 304 305 305 305 304 305 305 305 302
290 290 291 292 292 293 294 292 292 291 290 290 287 290 291 292 293 295 296 296 297 302 300 303 303 306 304 301 303 303 304 304 305 303 304 305 305 306 305 304 304 305 304 304
290 291 291 292 293 294 293 292 291 291 290 290 289 288 290 290 291 295 298 297 301 302 301 302 302 303 304 297 303 302 305 305 305 305 305 304 305 305 306 306 304 305 305 305
290 291 292 292 293 293 293 291 289 291 290 290 287 287 291 295 296 299 300 301 302 302 301 301 302 301 300 302 303 304 305 305 306 306 305 305 305 305 306 306 305 304 304 303
291 292 292 293 294 293 293 292 290 290 290 289 289 286 283 293 297 299 301 302 302 302 301 301 302 303 304 303 303 305 305 305 305 305 305 305 305 306 306 305 305 304 303 303
291 292 293 293 293 293 292 293 291 291 290 290 289 291 288 292 296 298 300 300 302 301 302 302 303 303 304 303 304 304 304 305 304 304 304 303 304 305 305 306 305 305 304 303
293 292 291 291 292 291 289 290 289 288 286 290 291 291 290 291 293 297 299 296 301 303 302 303 303 302 302 304 304 304 304 304 304 304 304 304 304 304 304 305 305 305 304 303
293 291 291 290 289 290 290 290 287 288 287 290 289 290 291 292 293 295 298 299 300 302 299 301 301 298 302 302 304 304 304 304 304 304 303 303 303 303 303 303 304 304 304 303
292 291 290 290 289 289 288 285 290 287 289 290 290 289 291 291 292 295 297 301 300 298 295 299 298 299 302 302 303 304 304 303 303 303 303 302 302 303 303 303 303 303 303 303
290 290 290 290 286 286 287 289 289 290 291 291 291 292 291 294 294 294 299 299 298 298 299 299 295 298 301 301 302 303 303 303 303 303 302 301 301 302 303 303 303 302 302 302
290 289 288 287 288 289 289 289 289 290 291 292 292 292 293 293 294 296 298 300 301 300 298 296 298 300 300 300 300 300 301 301 301 301 301 301 302 302 302 302 302 302 302 302
289 289 290 289 289 284 290 290 289 289 290 292 292 291 291 293 296 298 300 301 300 298 296 299 300 300 300 300 300 300 300 300 300 300 301 301 301 302 302 302 301 301 302 301
290 290 291 290 289 289 290 291 291 290 289 288 291 291 293 296 296 300 299 299 295 293 298 299 300 300 300 300 300 300 299 299 300 300 300 300 301 301 301 302 301 301 301 301
Wind_Speed
14 15 14 15 12 11 12 6 1 3 21 6 1 3 5 2 3 4 4 3 3 8 9 5 6 8 4 11 12 8 3 5 3 4 4 6 5 6 5 4 5 1 4 5
13 14 12 12 15 10 8 6 5 3 26 3 2 4 4 3 2 2 3 2 1 0 7 4 3 5 3 13 5 8 7 1 4 5 6 4 4 5 5 5 3 5 5 5
14 15 11 11 13 11 9 8 1 6 14 4 7 4 4 4 5 4 4 3 4 2 2 6 5 3 3 2 5 7 4 3 6 7 5 5 5 7 8 6 3 4 5 3
13 14 13 11 12 11 8 9 5 6 4 7 4 5 3 8 6 7 5 2 5 2 1 3 4 3 3 5 7 3 4 4 3 2 3 4 5 11 12 7 5 5 5 9
15 12 14 12 11 12 10 3 3 4 3 9 17 10 6 6 10 5 6 5 3 1 3 4 8 7 4 5 2 3 3 2 3 2 1 2 2 8 13 13 6 7 4 6
16 14 12 13 13 14 5 5 13 5 9 6 9 9 14 8 6 6 12 6 1 1 5 11 10 17 12 13 10 5 6 5 3 3 0 4 7 14 17 11 7 12 10 9
16 18 13 14 13 16 14 11 10 5 2 7 8 9 17 12 10 11 3 20 7 3 1 12 13 13 13 9 5 8 7 6 3 3 1 1 7 2 11 19 10 15 7 7
17 17 19 15 15 15 17 17 12 3 3 6 10 10 8 16 20 14 13 14 4 7 12 4 5 5 5 5 2 4 4 5 2 5 3 6 5 6 8 11 14 17 20 9
17 18 18 20 17 15 17 18 20 8 2 3 7 9 19 8 4 2 11 28 19 7 3 3 6 5 6 4 4 5 5 6 4 3 5 8 5 2 11 7 6 17 28 19
19 19 19 21 22 18 18 20 19 9 6 12 8 4 3 9 9 2 4 5 12 17 2 3 3 4 5 6 10 6 4 3 6 3 3 8 8 6 12 6 7 8 31 33
22 21 20 20 23 23 21 21 21 18 5 14 11 8 8 7 1 3 5 2 5 3 4 4 4 3 6 5 6 7 8 7 4 3 2 8 9 4 8 6 3 14 29 38
22 21 21 21 23 24 24 24 22 18 17 9 12 13 16 21 21 8 5 3 1 10 3 0 3 2 2 6 4 3 3 7 6 8 7 6 3 11 8 8 4 12 29 35
22 22 22 22 23 26 29 27 23 15 12 17 26 31 17 20 25 21 7 5 4 3 5 7 4 4 5 5 5 5 3 6 4 4 6 15 21 14 16 13 9 7 19 35
24 24 24 23 23 26 31 32 28 22 4 4 10 18 18 15 20 28 31 30 18 21 18 6 2 3 8 5 4 5 5 13 7 4 9 12 16 20 15 16 15 10 15 28
26 25 23 23 22 24 31 31 31 26 17 4 7 19 24 20 21 24 28 30 29 17 4 2 3 3 5 2 3 4 9 6 6 6 19 10 11 16 17 21 21 16 20 29
27 26 24 24 23 24 32 18 35 32 26 3 2 7 18 20 20 26 31 33 31 20 7 5 7 8 10 4 6 9 25 26 25 14 24 18 21 10 22 28 25 23 26 28
29 26 25 24 23 29 30 8 8 35 24 6 3 6 13 22 21 23 26 30 23 22 7 9 4 9 11 3 8 9 24 24 28 27 25 16 22 23 22 29 32 27 26 25
30 27 26 24 24 30 35 18 8 24 26 7 2 4 8 8 11 10 21 18 23 17 11 8 4 5 5 7 11 18 15 21 23 26 29 27 23 22 17 31 34 34 34 33
29 27 25 24 31 30 31 33 16 31 14 10 6 3 4 5 20 15 14 14 5 9 5 5 9 7 6 8 17 24 29 24 18 19 19 17 24 19 25 27 34 35 37 35
27 23 17 11 15 25 24 29 19 13 10 7 4 7 5 6 5 10 8 9 5 4 7 13 7 4 23 9 20 27 30 31 29 20 14 8 18 24 26 28 31 34 37 39
30 17 9 20 33 26 5 5 5 7 4 12 11 22 9 9 7 4 13 4 4 6 4 7 4 5 14 28 23 27 26 33 37 39 37 32 22 22 27 29 29 32 35 39
29 15 30 23 9 6 5 5 5 4 6 9 7 14 22 7 7 1 7 5 5 7 14 5 3 5 18 28 36 29 26 29 30 30 29 26 26 25 19 28 28 28 28 33
25 17 7 8 5 4 8 10 5 5 5 13 12 3 10 10 9 4 4 6 6 10 1 5 6 12 17 25 35 39 35 32 31 30 28 27 27 26 29 25 27 29 28 27
10 8 6 4 4 5 4 6 6 6 11 20 21 9 6 9 4 3 8 5 2 5 6 5 3 19 27 30 33 37 41 43 43 44 43 42 38 33 29 29 27 30 32 29
5 5 5 4 4 4 11 16 9 14 11 19 9 4 12 4 4 7 7 4 4 5 7 5 18 18 24 33 38 41 45 46 48 43 40 40 37 32 26 23 25 31 36 34
3 2 3 4 5 1 8 18 18 20 17 16 6 3 2 5 5 7 6 2 5 5 6 18 22 27 29 30 34 39 41 37 33 32 32 33 36 38 34 28 28 31 38 38
4 2 6 8 11 17 11 10 14 17 17 3 2 7 5 4 4 5 8 5 4 3 9 23 30 30 29 29 28 30 29 25 22 24 27 28 30 33 35 32 30 37 41 39
Wind_Direction
275 273 267 271 246 256 240 201 267 241 178 157 193 199 205 237 289 224 256 233 237 176 166 149 171 184 213 172 145 152 174 126 144 193 318 184 165 163 141 125 245 102 139 272
276 270 265 271 228 201 188 196 244 221 174 163 238 262 267 268 307 360 13 292 320 108 161 151 133 144 339 156 138 163 183 128 94 1 350 325 193 177 128 118 101 199 135 259
274 271 260 261 264 239 207 180 213 198 206 211 155 178 240 219 236 259 263 278 316 314 121 44 148 125 54 120 122 136 109 136 157 182 196 153 190 168 163 135 136 172 220 210
276 262 258 250 264 249 229 204 222 189 200 196 171 196 238 190 211 210 196 237 219 242 100 85 122 109 122 49 136 83 114 154 159 182 172 160 187 177 178 184 181 167 223 201
268 268 252 246 253 262 240 250 201 217 205 175 192 205 226 211 205 203 206 209 180 287 210 193 190 143 173 179 156 114 8 157 92 319 303 107 228 195 195 207 189 242 221 237
260 264 256 246 241 261 257 251 263 270 202 169 188 210 217 218 189 259 244 212 222 138 248 248 258 178 183 169 146 141 131 132 105 241 321 83 312 218 204 208 206 195 215 211
256 253 254 243 238 245 261 245 293 308 240 195 197 203 207 225 212 217 230 228 181 241 168 125 100 81 101 92 69 136 134 112 94 173 36 234 239 208 218 211 212 217 218 190
254 253 247 246 241 241 252 257 254 251 294 345 211 201 192 221 235 241 246 241 190 246 202 76 56 355 31 328 158 135 147 122 94 143 207 292 254 206 172 173 239 211 211 200
257 252 247 246 240 231 241 252 244 228 274 233 327 226 214 218 193 237 244 250 253 251 103 114 153 179 170 207 121 80 72 76 111 110 151 211 248 317 155 102 285 200 190 165
259 258 248 239 237 232 229 241 244 236 220 262 278 273 263 218 200 196 212 212 199 218 150 115 148 199 177 163 165 159 124 41 149 143 228 285 247 247 140 114 239 204 189 169
259 257 257 244 234 230 222 236 244 239 254 250 256 263 282 326 227 172 221 163 215 129 178 159 194 141 200 135 165 171 161 150 175 102 95 265 222 127 176 229 187 186 180 179
260 257 255 250 236 233 218 226 241 243 235 257 270 265 267 263 268 289 289 282 234 194 129 219 126 128 134 144 194 159 183 180 179 179 205 236 240 241 258 252 208 181 187 188
257 257 254 247 239 232 216 221 225 222 233 269 267 263 263 260 248 252 249 262 234 3 337 193 179 175 138 165 211 133 227 157 176 115 239 240 255 251 257 250 229 202 204 197
256 254 252 244 243 232 212 214 223 210 213 253 264 252 248 254 238 238 245 245 259 293 309 277 178 160 189 183 168 172 182 159 166 269 284 271 275 242 247 229 215 220 209 203
255 253 250 240 238 220 208 214 223 224 199 216 262 281 253 250 239 227 234 244 251 255 288 278 234 184 123 45 92 199 180 165 172 211 222 207 237 231 222 206 197 200 188 183
251 249 247 237 230 216 201 197 222 221 218 246 305 302 267 254 237 233 230 229 234 229 180 254 265 226 190 163 217 197 200 211 220 217 237 228 243 269 213 201 195 193 185 185
245 244 238 231 223 209 193 194 220 210 195 194 268 276 269 271 259 237 228 225 216 220 204 217 273 255 194 140 221 200 210 221 226 236 243 242 246 239 218 208 199 199 202 204
240 236 230 226 217 204 206 195 165 178 173 178 214 263 296 238 221 205 202 207 212 213 213 187 193 281 198 228 215 210 213 224 230 232 237 245 252 230 218 208 203 200 201 200
231 227 226 224 209 193 201 205 177 167 169 177 190 188 252 261 219 204 180 194 212 215 199 183 191 200 221 207 171 203 211 211 216 220 230 234 232 234 220 213 213 212 208 206
218 217 198 221 174 170 179 153 167 167 201 195 217 204 236 251 264 206 165 173 217 206 212 166 210 248 235 212 217 222 218 218 213 221 221 225 228 225 225 220 218 217 218 211
205 203 151 143 143 146 137 145 146 174 178 184 219 213 228 240 226 275 210 184 183 205 199 180 196 228 220 220 220 227 224 223 226 231 238 235 243 233 222 217 218 220 222 218
192 146 131 133 120 136 157 167 159 185 197 183 182 214 207 230 218 172 279 195 169 219 154 170 208 238 215 208 210 211 212 213 220 226 229 233 233 231 230 223 215 214 216 217
151 139 173 152 156 134 187 184 179 172 188 185 169 171 178 205 233 244 259 228 184 136 87 182 226 198 187 198 206 211 217 215 214 217 227 235 242 240 228 227 225 216 213 211
146 165 157 169 171 213 187 174 150 189 185 170 175 150 165 183 172 165 269 211 195 153 146 218 206 192 204 204 198 203 216 222 227 233 238 240 237 236 229 224 227 222 214 210
113 140 167 178 185 166 178 184 158 189 192 162 151 195 196 208 225 189 247 215 210 172 196 209 174 188 201 207 209 215 222 227 230 231 234 238 235 228 221 224 227 224 214 206
105 114 115 126 120 41 148 182 193 201 200 196 210 182 198 213 228 227 200 269 207 211 215 180 182 198 210 216 216 222 230 234 239 241 240 241 235 229 230 229 227 219 211 201
133 203 145 161 167 176 188 177 200 203 187 180 173 159 252 163 248 218 154 236 251 138 163 187 201 214 218 218 221 229 237 245 253 248 243 237 229 226 220 219 217 203 198 196